Regional Weather Roundup
Issued by NWS Midland/Odessa, TX

Skip options and go directly to product.
Home | Oldest Version | Next Version | Current Version | All | Text Only | Save Text | Print | Product List | Glossary On

Skip product version selection by date and time.   
554
ASUS44 KMAF 281001
RWRMAF
MIDLAND AREA WEATHER ROUNDUP
NATIONAL WEATHER SERVICE MIDLAND TX
500 AM CDT TUE JUN 28 2016

...IN SOUTHWEST TEXAS AND SOUTHEAST NEW MEXICO...

CITY           SKY/WX    TMP DP  RH WIND       PRES   REMARKS
ALPINE         CLOUDY    68  63  83 SE6       30.30S
ANDREWS        FAIR      70  61  72 N3        30.22R
ARTESIA        PTCLDY    66  66 100 N6        30.24S
BIG SPRING     CLOUDY    75  63  66 CALM      30.19S
CARLSBAD       CLOUDY    70  66  87 CALM      30.21R
DRYDEN           N/A     73  67  81 NE6       30.11S
FORT STOCKTON  CLOUDY    72  66  81 E8        30.17S
GUAD PASS      LGT RAIN  63  63 100 NE20G28   30.29S VSB 1/4
HOBBS          CLOUDY    68  66  94 N3        30.24F
MARFA          CLOUDY   N/A N/A N/A E9        30.27S
MIDLAND AIRPK  CLOUDY    73  65  76 CALM      30.19S
MIDLAND INTL   CLOUDY    73  65  75 N6        30.18S
ODESSA           N/A     72  64  76 NE7       30.20R
PECOS          CLOUDY    73  68  86 E7        30.16S
PRESIDIO       NOT AVBL
SEMINOLE       CLOUDY    70  60  70 CALM      30.23F
SNYDER           N/A     72  63  73 CALM      30.17F
WINK           LGT RAIN  70  67  90 SE6       30.17S
$$
...OTHER STATIONS IN TEXAS...

CITY           SKY/WX    TMP DP  RH WIND       PRES   REMARKS
ABILENE        CLOUDY    72  68  87 S5        30.13S
AMARILLO       CLEAR     63  57  81 W8        30.24F
AUSTIN         PTCLDY    75  71  87 SW3       30.05S
BROWNSVILLE    CLEAR     78  76  93 CALM      30.01S
CORPUS CHRISTI PTCLDY    75  72  90 CALM      30.02S
DALLAS FTW     PTCLDY    80  71  74 NW3       30.04S
DEL RIO        CLEAR     77  70  79 E5        30.06R
EL PASO        PTCLDY    73  61  65 NE9       30.18S
HOUSTON INT    PTCLDY    78  75  90 W3        30.02F
LUBBOCK        PTCLDY    66  57  72 NW3       30.22S
SAN ANGELO     CLOUDY    74  71  91 CALM      30.13R
SAN ANTONIO    PTCLDY    77  71  82 CALM      30.07S
WACO           CLEAR     76  71  85 NW3       30.05R
WICHITA FALLS  NOT AVBL
$$
...OTHER LOCATIONS IN NEW MEXICO...

CITY           SKY/WX    TMP DP  RH WIND       PRES   REMARKS
ALAMAGORDO     CLEAR     68  57  68 N6        30.23S
ALBUQUERQUE    PTCLDY    71  56  58 E14       30.34S
CANNON AFB     CLEAR     64  63  96 NW8       30.31R
CLOVIS         CLEAR     63  57  82 NW6       30.30S
HOLLOMAN AFB   PTCLDY    68  59  72 NW8       30.20S
ROSWELL        CLEAR     69  62  78 CALM      30.24F
RUIDOSO          N/A     57  57 100 SE6       30.43F
SANTA FE       CLOUDY    61  51  70 S6        30.42S
TRUTH OR CONSE PTCLDY    71  52  50 N6        30.26R
TUCUMCARI      CLEAR     66  59  78 W7        30.28S
$$

USA.gov is the U.S. government's official web portal to all federal, state and local government web resources and services.